• Em Portugal
  • Lista de países
  • Para 7 dias
  • Temperatura da água
  • Mapas de satélite
  • Mapa do tempo
  • Widgets de tempo
  • user-avatar
    Iniciar Sessão

    Previsão horária em Macapa

    Hoje, 17 Outubro, Terça-feira

    Tempo Temperatura Precipitação Vento Pressão Humidade
    00:00 +28°C° 0 mm 3 m/s 759 mmHg 84%
    01:00 +27°C° 0 mm 3 m/s 759 mmHg 86%
    02:00 +27°C° 0 mm 2 m/s 759 mmHg 88%
    03:00 +26°C° 0 mm 2 m/s 759 mmHg 90%
    04:00 +26°C° 0 mm 2 m/s 759 mmHg 91%
    05:00 +26°C° 0 mm 2 m/s 759 mmHg 92%
    06:00 +26°C° 0 mm 2 m/s 759 mmHg 93%
    07:00 +28°C° 0 mm 2 m/s 759 mmHg 83%
    08:00 +30°C° 0 mm 3 m/s 759 mmHg 73%
    09:00 +33°C° 0 mm 3 m/s 760 mmHg 63%
    10:00 +34°C° 0 mm 3 m/s 759 mmHg 57%
    11:00 +36°C° 0 mm 3 m/s 759 mmHg 51%
    12:00 +37°C° 0 mm 3 m/s 759 mmHg 44%
    13:00 +38°C° 0,1 mm 4 m/s 758 mmHg 44%
    14:00 +38°C° 0,1 mm 4 m/s 758 mmHg 44%
    15:00 +38°C° 0,1 mm 4 m/s 757 mmHg 44%
    16:00 +36°C° 0,2 mm 4 m/s 757 mmHg 51%
    17:00 +34°C° 0,2 mm 4 m/s 757 mmHg 57%
    18:00 +32°C° 0,2 mm 4 m/s 757 mmHg 63%
    19:00 +30°C° 0 mm 4 m/s 758 mmHg 68%
    20:00 +29°C° 0 mm 4 m/s 758 mmHg 73%
    21:00 +28°C° 0 mm 4 m/s 759 mmHg 78%
    22:00 +28°C° 0 mm 3 m/s 759 mmHg 80%
    23:00 +28°C° 0 mm 3 m/s 759 mmHg 81%

    Amanhã, 18 Outubro, Quarta-feira

    Tempo Temperatura Precipitação Vento Pressão Humidade
    00:00 +27°C° 0 mm 3 m/s 759 mmHg 83%
    01:00 +27°C° 0 mm 3 m/s 759 mmHg 85%
    02:00 +27°C° 0 mm 2 m/s 758 mmHg 86%
    03:00 +26°C° 0 mm 2 m/s 758 mmHg 88%
    04:00 +26°C° 0,1 mm 2 m/s 758 mmHg 88%
    05:00 +26°C° 0,1 mm 2 m/s 758 mmHg 89%
    06:00 +26°C° 0,1 mm 2 m/s 758 mmHg 90%
    07:00 +28°C° 0 mm 2 m/s 758 mmHg 81%
    08:00 +30°C° 0 mm 3 m/s 759 mmHg 72%
    09:00 +33°C° 0 mm 3 m/s 759 mmHg 63%
    10:00 +34°C° 0 mm 3 m/s 759 mmHg 58%
    11:00 +36°C° 0 mm 4 m/s 759 mmHg 53%
    12:00 +37°C° 0 mm 4 m/s 759 mmHg 48%
    13:00 +37°C° 0,2 mm 4 m/s 758 mmHg 48%
    14:00 +37°C° 0,2 mm 4 m/s 757 mmHg 48%
    15:00 +37°C° 0,2 mm 4 m/s 757 mmHg 49%
    16:00 +35°C° 0,2 mm 4 m/s 757 mmHg 54%
    17:00 +34°C° 0,2 mm 4 m/s 757 mmHg 59%
    18:00 +31°C° 0,2 mm 3 m/s 757 mmHg 64%
    19:00 +30°C° 0,3 mm 3 m/s 758 mmHg 69%
    20:00 +29°C° 0,3 mm 3 m/s 758 mmHg 73%
    21:00 +28°C° 0,3 mm 3 m/s 759 mmHg 78%
    22:00 +28°C° 0,3 mm 3 m/s 759 mmHg 82%
    23:00 +27°C° 0,3 mm 3 m/s 759 mmHg 85%

    Depois de amanhã, 19 Outubro, Quinta-feira

    Tempo Temperatura Precipitação Vento Pressão Humidade
    00:00 +26°C° 0,3 mm 2 m/s 759 mmHg 89%
    01:00 +26°C° 0,5 mm 2 m/s 759 mmHg 91%
    02:00 +26°C° 0,5 mm 2 m/s 758 mmHg 92%
    03:00 +26°C° 0,5 mm 2 m/s 758 mmHg 94%
    04:00 +25°C° 0 mm 2 m/s 758 mmHg 95%
    05:00 +25°C° 0 mm 2 m/s 757 mmHg 95%
    06:00 +25°C° 0 mm 2 m/s 757 mmHg 96%
    07:00 +27°C° 0 mm 3 m/s 758 mmHg 87%
    08:00 +29°C° 0 mm 3 m/s 758 mmHg 78%
    09:00 +31°C° 0 mm 3 m/s 759 mmHg 69%
    10:00 +34°C° 0 mm 4 m/s 759 mmHg 60%
    11:00 +36°C° 0 mm 4 m/s 758 mmHg 51%
    12:00 +37°C° 0 mm 4 m/s 758 mmHg 43%
    13:00 +38°C° 0 mm 4 m/s 757 mmHg 41%
    14:00 +38°C° 0 mm 4 m/s 756 mmHg 39%
    15:00 +39°C° 0 mm 5 m/s 755 mmHg 38%
    16:00 +36°C° 0 mm 4 m/s 756 mmHg 44%
    17:00 +34°C° 0 mm 4 m/s 756 mmHg 50%
    18:00 +32°C° 0 mm 4 m/s 756 mmHg 56%
    19:00 +30°C° 0 mm 4 m/s 757 mmHg 62%
    20:00 +29°C° 0 mm 4 m/s 758 mmHg 68%
    21:00 +28°C° 0 mm 4 m/s 758 mmHg 75%
    22:00 +28°C° 0 mm 3 m/s 759 mmHg 77%
    23:00 +27°C° 0 mm 3 m/s 759 mmHg 80%

    20 Outubro, Sexta-feira

    Tempo Temperatura Precipitação Vento Pressão Humidade
    00:00 +27°C° 0 mm 3 m/s 759 mmHg 82%
    01:00 +27°C° 0 mm 3 m/s 758 mmHg 84%
    02:00 +26°C° 0 mm 3 m/s 757 mmHg 86%
    03:00 +26°C° 0 mm 2 m/s 757 mmHg 88%
    04:00 +26°C° 0 mm 2 m/s 757 mmHg 89%
    05:00 +26°C° 0 mm 2 m/s 757 mmHg 90%
    06:00 +25°C° 0 mm 2 m/s 757 mmHg 92%
    07:00 +27°C° 0 mm 3 m/s 758 mmHg 82%
    08:00 +29°C° 0 mm 3 m/s 758 mmHg 72%
    09:00 +32°C° 0 mm 4 m/s 759 mmHg 63%
    10:00 +34°C° 0 mm 4 m/s 758 mmHg 56%
    11:00 +36°C° 0 mm 4 m/s 758 mmHg 48%
    12:00 +37°C° 0 mm 4 m/s 758 mmHg 41%
    13:00 +37°C° 0 mm 4 m/s 757 mmHg 42%
    14:00 +37°C° 0 mm 5 m/s 756 mmHg 43%
    15:00 +37°C° 0 mm 5 m/s 756 mmHg 44%
    16:00 +35°C° 0 mm 4 m/s 756 mmHg 50%
    17:00 +34°C° 0 mm 4 m/s 756 mmHg 57%
    18:00 +31°C° 0 mm 3 m/s 756 mmHg 63%
    19:00 +30°C° 0 mm 3 m/s 757 mmHg 67%
    20:00 +29°C° 0 mm 3 m/s 757 mmHg 71%
    21:00 +28°C° 0 mm 3 m/s 758 mmHg 75%
    22:00 +28°C° 0 mm 3 m/s 758 mmHg 79%
    23:00 +27°C° 0 mm 3 m/s 758 mmHg 82%

    21 Outubro, Sábado

    Tempo Temperatura Precipitação Vento Pressão Humidade
    00:00 +27°C° 0 mm 3 m/s 758 mmHg 85%
    01:00 +26°C° 0 mm 3 m/s 757 mmHg 87%
    02:00 +26°C° 0 mm 2 m/s 757 mmHg 90%
    03:00 +26°C° 0 mm 2 m/s 756 mmHg 92%
    04:00 +25°C° 0 mm 2 m/s 756 mmHg 92%
    05:00 +25°C° 0 mm 2 m/s 757 mmHg 93%
    06:00 +25°C° 0 mm 2 m/s 757 mmHg 93%
    07:00 +27°C° 0 mm 3 m/s 758 mmHg 83%
    08:00 +29°C° 0 mm 3 m/s 759 mmHg 73%
    09:00 +32°C° 0 mm 4 m/s 759 mmHg 63%
    10:00 +33°C° 0 mm 4 m/s 759 mmHg 58%
    11:00 +34°C° 0 mm 4 m/s 759 mmHg 54%
    12:00 +35°C° 0 mm 4 m/s 758 mmHg 49%
    13:00 +36°C° 0 mm 4 m/s 758 mmHg 47%
    14:00 +36°C° 0 mm 4 m/s 757 mmHg 44%
    15:00 +37°C° 0 mm 5 m/s 756 mmHg 42%
    16:00 +35°C° 0 mm 4 m/s 757 mmHg 49%
    17:00 +34°C° 0 mm 4 m/s 757 mmHg 55%
    18:00 +31°C° 0 mm 3 m/s 757 mmHg 62%
    19:00 +30°C° 0 mm 3 m/s 757 mmHg 66%
    20:00 +29°C° 0 mm 3 m/s 758 mmHg 70%
    21:00 +28°C° 0 mm 3 m/s 759 mmHg 74%
    22:00 +28°C° 0 mm 3 m/s 759 mmHg 78%
    23:00 +27°C° 0 mm 3 m/s 759 mmHg 81%

    22 Outubro, Domingo

    Tempo Temperatura Precipitação Vento Pressão Humidade
    00:00 +27°C° 0 mm 2 m/s 758 mmHg 84%
    01:00 +26°C° 0 mm 2 m/s 758 mmHg 86%
    02:00 +26°C° 0 mm 2 m/s 757 mmHg 88%
    03:00 +26°C° 0 mm 2 m/s 757 mmHg 90%
    04:00 +26°C° 0 mm 2 m/s 757 mmHg 91%
    05:00 +25°C° 0 mm 2 m/s 757 mmHg 92%
    06:00 +25°C° 0 mm 2 m/s 757 mmHg 93%
    07:00 +27°C° 0 mm 3 m/s 758 mmHg 84%
    08:00 +29°C° 0 mm 3 m/s 758 mmHg 76%
    09:00 +32°C° 0 mm 4 m/s 759 mmHg 67%
    10:00 +33°C° 0,2 mm 4 m/s 758 mmHg 63%
    11:00 +34°C° 0,2 mm 4 m/s 758 mmHg 60%
    12:00 +35°C° 0,2 mm 4 m/s 758 mmHg 56%
    13:00 +35°C° 0,3 mm 4 m/s 757 mmHg 56%
    14:00 +35°C° 0,3 mm 4 m/s 757 mmHg 57%
    15:00 +35°C° 0,3 mm 4 m/s 756 mmHg 57%
    16:00 +34°C° 0,2 mm 4 m/s 756 mmHg 61%
    17:00 +33°C° 0,2 mm 4 m/s 756 mmHg 66%
    18:00 +30°C° 0,2 mm 3 m/s 757 mmHg 70%
    19:00 +29°C° 0 mm 3 m/s 757 mmHg 73%
    20:00 +29°C° 0 mm 3 m/s 758 mmHg 76%
    21:00 +28°C° 0 mm 3 m/s 758 mmHg 80%
    22:00 +27°C° 0 mm 3 m/s 758 mmHg 82%
    23:00 +27°C° 0 mm 3 m/s 758 mmHg 85%
    Mostrar mais